Tracking 25195 objects as of 20-Jan-2022
HD Live streaming from Space Station
objects crossing your sky now

OPS 9346 (IDSCS 25)

Track OPS 9346 (IDSCS 25) now!
OPS 9346 (IDSCS 25) is classified as:


NORAD ID: 3289
Int'l Code: 1968-050F
Perigee: 33,756.8 km
Apogee: 34,113.1 km
Inclination: 3.8 °
Period: 1,342.2 minutes
Semi major axis: 40305 km
RCS: 0.3981 m2 (medium)
Launch date: June 13, 1968
Source: United States (US)
Launch site: AIR FORCE EASTERN TEST RANGE (AFETR)
aabbcc
Your satellite tracking list
Your tracking list is empty




NASA's NSSDC Master Catalog

Two Line Element Set (TLE):
1  3289U 68050F   22019.88382998 -.00000080  00000-0  00000+0 0  9998
2  3289   3.7521  63.1357 0044193  92.4312  40.4027  1.07287505121982
Source of the keplerian elements: AFSPC